Location: Newark
(43.0000°N, 1.6781°W)
Time: 06:31:54
(UTC+00:00)

AO-7 - Visible Passes

Search period start: 07 December 2022 00:00
Search period end: 17 December 2022 00:00
Orbit: 1439 x 1459 km, 101.9° (Epoch: 06 December)

Date Brightness Start Highest point End Pass type
(mag) Time Alt. Az. Time Alt. Az. Time Alt. Az.
07 Dec ? 02:56:43 10° ENE 03:00:12 13° E 03:03:41 10° ESE visible
07 Dec ? 04:46:01 10° NNE 04:54:20 71° ESE 05:02:37 10° S visible
07 Dec ? 06:39:34 10° N 06:46:24 30° NW 06:53:15 10° WSW visible
07 Dec ? 17:43:12 10° SW 17:47:55 16° W 17:52:41 10° NW visible
08 Dec ? 03:46:48 10° NE 03:53:58 31° E 04:01:06 10° SSE visible
08 Dec ? 05:38:58 10° NNE 05:47:07 62° WNW 05:55:15 10° SW visible
09 Dec ? 02:50:47 10° ENE 02:52:59 11° E 02:55:12 10° ESE visible
09 Dec ? 04:38:59 10° NNE 04:47:15 64° ESE 04:55:29 10° S visible
09 Dec ? 06:32:24 10° N 06:39:28 33° NW 06:46:31 10° WSW visible
09 Dec ? 17:35:25 10° SW 17:40:44 18° W 17:46:04 10° NW visible
10 Dec ? 03:39:56 10° NE 03:46:50 28° E 03:53:41 10° SSE visible
10 Dec ? 05:31:52 10° NNE 05:40:06 68° WNW 05:48:19 10° SSW visible
11 Dec ? 04:31:58 10° NNE 04:40:10 59° ESE 04:48:20 10° S visible
11 Dec ? 06:25:14 10° N 06:32:30 36° WNW 06:39:46 10° WSW visible
11 Dec ? 17:27:44 10° SW 17:33:33 21° W 17:39:24 10° NW visible
12 Dec ? 03:33:06 10° NE 03:39:41 25° E 03:46:12 10° SSE visible
12 Dec ? 05:24:47 10° NNE 05:33:04 74° WNW 05:41:21 10° SSW visible
13 Dec ? 04:24:58 10° NNE 04:33:06 53° ESE 04:41:09 10° S visible
13 Dec ? 06:18:05 10° N 06:25:32 39° WNW 06:33:00 10° WSW visible
13 Dec ? 17:20:09 10° SW 17:26:22 23° W 17:32:39 10° NW visible
14 Dec ? 03:26:18 10° NE 03:32:31 23° E 03:38:41 10° SE visible
14 Dec ? 05:17:42 10° NNE 05:26:02 80° WNW 05:34:22 10° SSW visible
15 Dec ? 04:17:59 10° NNE 04:25:59 48° ESE 04:33:57 10° S visible
15 Dec ? 06:10:57 10° N 06:18:34 42° WNW 06:26:12 10° SW visible
15 Dec ? 17:12:38 10° SSW 17:19:12 26° W 17:25:50 10° NW visible
16 Dec ? 03:19:34 10° NE 03:25:20 20° E 03:31:04 10° SE visible
16 Dec ? 05:10:38 10° NNE 05:19:00 87° WNW 05:27:21 10° SSW visible
